Time,TemperatureF,DewpointF,PressureIn,WindDirection,WindDirectionDegrees,WindSpeedMPH,WindSpeedGustMPH,Humidity,HourlyPrecipIn,Conditions,Clouds,dailyrainin,SolarRadiationWatts/m^2,SoftwareType,DateUTC
2013-03-05 00:00:00,32.0,23.3,29.66,NNW,346,5.0,12.0,70,0.00,CLR,SCT,0.00,0.0,WeatherDisplay:10.37,2013-03-05 05:00:00,
2013-03-05 00:10:00,32.0,23.0,29.66,North,9,3.0,11.0,69,0.00,SCT,SCT,0.00,0.0,WeatherDisplay:10.37,2013-03-05 05:10:00,
2013-03-05 00:15:00,32.0,23.3,29.67,North,356,2.0,10.0,70,0.00,SCT,SCT,0.00,0.0,WeatherDisplay:10.37,2013-03-05 05:15:00,
2013-03-05 00:20:00,32.0,23.3,29.67,NNW,327,3.0,11.0,70,0.00,SCT,SCT,0.00,0.0,WeatherDisplay:10.37,2013-03-05 05:20:00,
2013-03-05 00:30:00,31.8,23.1,29.67,North,355,3.0,13.0,70,0.00,SCT,SCT,0.00,0.0,WeatherDisplay:10.37,2013-03-05 05:30:00,
2013-03-05 00:40:00,31.5,22.8,29.68,NNW,329,6.0,13.0,70,0.00,SCT,SCT,0.00,0.0,WeatherDisplay:10.37,2013-03-05 05:40:00,
2013-03-05 00:45:00,31.5,22.8,29.68,NW,319,6.0,14.0,70,0.00,SCT,SCT,0.00,0.0,WeatherDisplay:10.37,2013-03-05 05:45:00,
2013-03-05 00:55:00,31.5,22.8,29.68,North,352,2.0,10.0,70,0.00,SCT,SCT,0.00,0.0,WeatherDisplay:10.37,2013-03-05 05:55:00,
2013-03-05 01:00:00,31.5,22.8,29.68,NNW,342,2.0,6.0,70,0.00,SCT,SCT,0.00,0.0,WeatherDisplay:10.37,2013-03-05 06:00:00,
2013-03-05 01:10:00,31.5,22.8,29.68,NE,47,3.0,8.0,70,0.00,SCT,SCT,0.00,0.0,WeatherDisplay:10.37,2013-03-05 06:10:00,
2013-03-05 01:15:00,31.5,22.8,29.69,NNW,348,1.0,9.0,70,0.00,SCT,SCT,0.00,0.0,WeatherDisplay:10.37,2013-03-05 06:15:00,
2013-03-05 01:25:00,31.5,22.8,29.69,North,352,3.0,8.0,70,0.00,BKN,SCT,0.00,0.0,WeatherDisplay:10.37,2013-03-05 06:25:00,
2013-03-05 01:30:00,31.5,22.8,29.69,North,350,1.0,8.0,70,0.00,BKN,SCT,0.00,0.0,WeatherDisplay:10.37,2013-03-05 06:30:00,
2013-03-05 01:40:00,31.3,22.6,29.70,NW,323,3.0,7.0,70,0.00,BKN,SCT,0.00,0.0,WeatherDisplay:10.37,2013-03-05 06:40:00,
2013-03-05 01:45:00,31.1,22.5,29.70,NNW,328,1.0,7.0,70,0.00,BKN,SCT,0.00,0.0,WeatherDisplay:10.37,2013-03-05 06:45:00,
2013-03-05 01:55:00,31.1,22.5,29.70,NW,321,3.0,10.0,70,0.00,BKN,SCT,0.00,0.0,WeatherDisplay:10.37,2013-03-05 06:55:00,
2013-03-05 02:00:00,31.1,22.5,29.70,NW,324,2.0,8.0,70,0.00,BKN,SCT,0.00,0.0,WeatherDisplay:10.37,2013-03-05 07:00:00,
2013-03-05 02:10:00,31.1,22.5,29.70,NE,49,2.0,8.0,70,0.00,BKN,SCT,0.00,0.0,WeatherDisplay:10.37,2013-03-05 07:10:00,
2013-03-05 02:15:00,31.1,22.5,29.70,NNE,14,1.0,6.0,70,0.00,BKN,SCT,0.00,0.0,WeatherDisplay:10.37,2013-03-05 07:15:00,
2013-03-05 02:25:00,31.3,22.6,29.70,NNW,340,3.0,7.0,70,0.00,BKN,SCT,0.00,0.0,WeatherDisplay:10.37,2013-03-05 07:25:00,
2013-03-05 02:30:00,31.5,22.8,29.70,North,352,2.0,8.0,70,0.00,BKN,SCT,0.00,0.0,WeatherDisplay:10.37,2013-03-05 07:30:00,
2013-03-05 02:40:00,31.5,22.8,29.71,NW,313,3.0,13.0,70,0.00,BKN,SCT,0.00,0.0,WeatherDisplay:10.37,2013-03-05 07:40:00,
2013-03-05 02:45:00,31.5,22.8,29.71,NW,317,5.0,13.0,70,0.00,BKN,SCT,0.00,0.0,WeatherDisplay:10.37,2013-03-05 07:45:00,
2013-03-05 02:55:00,31.5,22.8,29.71,NW,324,2.0,10.0,70,0.00,BKN,SCT,0.00,0.0,WeatherDisplay:10.37,2013-03-05 07:55:00,
2013-03-05 03:00:00,31.5,22.8,29.71,NNW,346,5.0,13.0,70,0.00,BKN,SCT,0.00,0.0,WeatherDisplay:10.37,2013-03-05 08:00:00,
2013-03-05 03:10:00,31.5,22.8,29.72,NNE,27,5.0,13.0,70,0.00,BKN,SCT,0.00,0.0,WeatherDisplay:10.37,2013-03-05 08:10:00,
2013-03-05 03:15:00,31.5,22.8,29.72,NNE,14,2.0,6.0,70,0.00,BKN,SCT,0.00,0.0,WeatherDisplay:10.37,2013-03-05 08:15:00,
2013-03-05 03:25:00,31.3,22.6,29.72,NNW,343,3.0,13.0,70,0.00,BKN,SCT,0.00,0.0,WeatherDisplay:10.37,2013-03-05 08:25:00,
2013-03-05 03:30:00,31.1,22.5,29.73,NNW,341,2.0,8.0,70,0.00,BKN,SCT,0.00,0.0,WeatherDisplay:10.37,2013-03-05 08:30:00,
2013-03-05 03:40:00,30.9,22.6,29.73,NNW,342,3.0,13.0,71,0.00,OVC,SCT,0.00,0.0,WeatherDisplay:10.37,2013-03-05 08:40:00,
2013-03-05 03:45:00,30.7,22.4,29.73,NW,318,2.0,13.0,71,0.00,OVC,SCT,0.00,0.0,WeatherDisplay:10.37,2013-03-05 08:45:00,
2013-03-05 03:55:00,30.6,22.7,29.74,NNW,342,3.0,9.0,72,0.00,OVC,SCT,0.00,0.0,WeatherDisplay:10.37,2013-03-05 08:55:00,
2013-03-05 04:00:00,30.6,22.6,29.74,NNW,332,2.0,7.0,72,0.00,OVC,SCT,0.00,0.0,WeatherDisplay:10.37,2013-03-05 09:00:00,
2013-03-05 04:10:00,30.9,23.0,29.75,NW,315,2.0,7.0,72,0.00,SCT,SCT,0.00,0.0,WeatherDisplay:10.37,2013-03-05 09:10:00,
2013-03-05 04:15:00,30.9,23.0,29.75,NW,314,2.0,9.0,72,0.00,SCT,SCT,0.00,0.0,WeatherDisplay:10.37,2013-03-05 09:15:00,
2013-03-05 04:25:00,31.1,23.1,29.75,NNW,342,5.0,8.0,72,0.00,SCT,SCT,0.00,0.0,WeatherDisplay:10.37,2013-03-05 09:25:00,
2013-03-05 04:30:00,31.1,23.1,29.75,NNE,14,6.0,10.0,72,0.00,SCT,SCT,0.00,0.0,WeatherDisplay:10.37,2013-03-05 09:30:00,
2013-03-05 04:40:00,31.1,23.1,29.75,North,9,6.0,15.0,72,0.00,SCT,SCT,0.00,0.0,WeatherDisplay:10.37,2013-03-05 09:40:00,
2013-03-05 04:45:00,31.1,23.1,29.75,NNE,12,2.0,13.0,72,0.00,SCT,SCT,0.00,0.0,WeatherDisplay:10.37,2013-03-05 09:45:00,
2013-03-05 04:50:00,31.3,23.3,29.76,North,357,5.0,8.0,72,0.00,SCT,SCT,0.00,0.0,WeatherDisplay:10.37,2013-03-05 09:50:00,
2013-03-05 04:55:00,31.3,23.3,29.76,NNW,329,3.0,8.0,72,0.00,SCT,SCT,0.00,0.0,WeatherDisplay:10.37,2013-03-05 09:55:00,
2013-03-05 05:00:00,31.3,23.3,29.76,North,349,3.0,8.0,72,0.00,SCT,SCT,0.00,0.0,WeatherDisplay:10.37,2013-03-05 10:00:00,
2013-03-05 05:10:00,31.3,23.3,29.77,NW,322,3.0,8.0,72,0.00,FEW,SCT,0.00,0.0,WeatherDisplay:10.37,2013-03-05 10:10:00,
2013-03-05 05:15:00,31.4,23.4,29.77,NNW,337,2.0,8.0,72,0.00,FEW,SCT,0.00,0.0,WeatherDisplay:10.37,2013-03-05 10:15:00,
2013-03-05 05:25:00,31.5,23.1,29.77,NNW,334,1.0,9.0,71,0.00,FEW,SCT,0.00,0.0,WeatherDisplay:10.37,2013-03-05 10:25:00,
2013-03-05 05:30:00,31.5,23.2,29.78,NNW,339,5.0,12.0,71,0.00,FEW,SCT,0.00,0.0,WeatherDisplay:10.37,2013-03-05 10:30:00,
2013-03-05 05:40:00,31.5,23.1,29.78,NNW,339,3.0,10.0,71,0.00,FEW,SCT,0.00,0.0,WeatherDisplay:10.37,2013-03-05 10:40:00,
2013-03-05 05:45:00,31.6,23.6,29.78,NNW,342,5.0,8.0,72,0.00,FEW,SCT,0.00,0.0,WeatherDisplay:10.37,2013-03-05 10:45:00,
2013-03-05 05:55:00,31.6,23.3,29.78,NNW,341,3.0,8.0,71,0.00,FEW,SCT,0.00,0.0,WeatherDisplay:10.37,2013-03-05 10:55:00,
2013-03-05 06:00:00,31.6,23.3,29.79,North,360,2.0,9.0,71,0.00,FEW,SCT,0.00,0.0,WeatherDisplay:10.37,2013-03-05 11:00:00,
2013-03-05 06:10:00,31.8,23.5,29.79,NNE,29,2.0,9.0,71,0.00,OVC,SCT,0.00,0.0,WeatherDisplay:10.37,2013-03-05 11:10:00,
2013-03-05 06:15:00,31.8,23.5,29.79,North,355,3.0,11.0,71,0.00,OVC,SCT,0.00,0.0,WeatherDisplay:10.37,2013-03-05 11:15:00,
2013-03-05 06:25:00,31.8,23.5,29.80,North,357,6.0,8.0,71,0.00,OVC,SCT,0.00,0.0,WeatherDisplay:10.37,2013-03-05 11:25:00,
2013-03-05 06:30:00,31.8,23.5,29.80,North,357,2.0,8.0,71,0.00,OVC,SCT,0.00,0.0,WeatherDisplay:10.37,2013-03-05 11:30:00,
2013-03-05 06:40:00,32.0,23.7,29.80,North,357,3.0,8.0,71,0.00,OVC,SCT,0.00,0.0,WeatherDisplay:10.37,2013-03-05 11:40:00,
2013-03-05 06:45:00,32.2,23.8,29.81,North,356,3.0,10.0,71,0.00,OVC,SCT,0.00,0.0,WeatherDisplay:10.37,2013-03-05 11:45:00,
2013-03-05 06:55:00,32.6,23.8,29.81,NNW,330,2.0,7.0,70,0.00,OVC,SCT,0.00,0.0,WeatherDisplay:10.37,2013-03-05 11:55:00,
2013-03-05 07:00:00,32.7,24.0,29.81,NNW,337,5.0,11.0,70,0.00,OVC,SCT,0.00,0.0,WeatherDisplay:10.37,2013-03-05 12:00:00,
2013-03-05 07:10:00,32.9,23.8,29.81,North,1,3.0,9.0,69,0.00,OVC,SCT,0.00,0.0,WeatherDisplay:10.37,2013-03-05 12:10:00,
2013-03-05 07:15:00,32.9,23.8,29.82,North,9,3.0,10.0,69,0.00,OVC,SCT,0.00,0.0,WeatherDisplay:10.37,2013-03-05 12:15:00,
2013-03-05 07:25:00,33.2,24.1,29.82,North,0,5.0,10.0,69,0.00,OVC,SCT,0.00,0.0,WeatherDisplay:10.37,2013-03-05 12:25:00,
2013-03-05 07:30:00,33.4,24.4,29.82,North,0,2.0,10.0,69,0.00,OVC,SCT,0.00,0.0,WeatherDisplay:10.37,2013-03-05 12:30:00,
2013-03-05 07:40:00,33.8,24.0,29.83,NNW,328,9.0,15.0,67,0.00,OVC,SCT,0.00,0.0,WeatherDisplay:10.37,2013-03-05 12:40:00,
2013-03-05 07:45:00,34.0,24.2,29.83,NNW,337,5.0,13.0,67,0.00,OVC,SCT,0.00,0.0,WeatherDisplay:10.37,2013-03-05 12:45:00,
2013-03-05 07:55:00,34.2,24.0,29.84,NNW,342,7.0,13.0,66,0.00,OVC,SCT,0.00,0.0,WeatherDisplay:10.37,2013-03-05 12:55:00,
2013-03-05 08:00:00,34.2,24.3,29.84,North,349,5.0,13.0,67,0.00,OVC,SCT,0.00,0.0,WeatherDisplay:10.37,2013-03-05 13:00:00,
2013-03-05 08:10:00,34.7,24.5,29.84,NNW,333,3.0,11.0,66,0.00,OVC,SCT,0.00,0.0,WeatherDisplay:10.37,2013-03-05 13:10:00,
2013-03-05 08:15:00,34.7,24.5,29.84,NNW,346,2.0,10.0,66,0.00,OVC,SCT,0.00,0.0,WeatherDisplay:10.37,2013-03-05 13:15:00,
2013-03-05 08:25:00,35.1,24.5,29.84,NNE,15,3.0,11.0,65,0.00,OVC,SCT,0.00,0.0,WeatherDisplay:10.37,2013-03-05 13:25:00,
2013-03-05 08:30:00,35.2,24.6,29.85,NNW,346,3.0,9.0,65,0.00,OVC,SCT,0.00,0.0,WeatherDisplay:10.37,2013-03-05 13:30:00,
2013-03-05 08:40:00,35.8,24.8,29.85,North,354,5.0,13.0,64,0.00,OVC,SCT,0.00,0.0,WeatherDisplay:10.37,2013-03-05 13:40:00,
2013-03-05 08:45:00,36.1,25.1,29.85,North,349,3.0,10.0,64,0.00,OVC,SCT,0.00,0.0,WeatherDisplay:10.37,2013-03-05 13:45:00,
2013-03-05 08:55:00,36.5,25.1,29.85,North,6,5.0,13.0,63,0.00,OVC,SCT,0.00,0.0,WeatherDisplay:10.37,2013-03-05 13:55:00,
2013-03-05 09:00:00,36.9,25.5,29.85,North,352,3.0,13.0,63,0.00,OVC,SCT,0.00,0.0,WeatherDisplay:10.37,2013-03-05 14:00:00,
2013-03-05 09:10:00,37.4,25.2,29.85,NNE,12,3.0,10.0,61,0.00,OVC,SCT,0.00,0.0,WeatherDisplay:10.37,2013-03-05 14:10:00,
2013-03-05 09:15:00,37.8,25.5,29.85,NNE,32,3.0,8.0,61,0.00,OVC,SCT,0.00,0.0,WeatherDisplay:10.37,2013-03-05 14:15:00,
2013-03-05 09:25:00,37.9,25.7,29.86,NNE,15,3.0,11.0,61,0.00,OVC,SCT,0.00,0.0,WeatherDisplay:10.37,2013-03-05 14:25:00,
2013-03-05 09:30:00,38.1,25.4,29.86,North,8,5.0,10.0,60,0.00,OVC,SCT,0.00,0.0,WeatherDisplay:10.37,2013-03-05 14:30:00,
2013-03-05 09:40:00,38.7,26.4,29.86,North,10,3.0,8.0,61,0.00,OVC,SCT,0.00,0.0,WeatherDisplay:10.37,2013-03-05 14:40:00,
2013-03-05 09:45:00,39.2,26.1,29.86,NNE,14,3.0,8.0,59,0.00,OVC,SCT,0.00,0.0,WeatherDisplay:10.37,2013-03-05 14:45:00,
2013-03-05 09:50:00,39.2,26.1,29.86,North,4,3.0,7.0,59,0.00,OVC,SCT,0.00,0.0,WeatherDisplay:10.37,2013-03-05 14:50:00,
2013-03-05 10:00:00,40.5,26.4,29.86,North,350,2.0,8.0,57,0.00,OVC,SCT,0.00,0.0,WeatherDisplay:10.37,2013-03-05 15:00:00,
2013-03-05 10:10:00,41.4,26.4,29.86,NNW,346,5.0,9.0,55,0.00,OVC,SCT,0.00,0.0,WeatherDisplay:10.37,2013-03-05 15:10:00,
2013-03-05 10:15:00,41.5,27.0,29.86,NNW,342,3.0,8.0,56,0.00,OVC,SCT,0.00,0.0,WeatherDisplay:10.37,2013-03-05 15:15:00,
2013-03-05 10:25:00,42.5,27.4,29.86,North,5,5.0,11.0,55,0.00,OVC,SCT,0.00,0.0,WeatherDisplay:10.37,2013-03-05 15:25:00,
2013-03-05 10:30:00,42.7,27.2,29.86,North,356,6.0,10.0,54,0.00,OVC,SCT,0.00,0.0,WeatherDisplay:10.37,2013-03-05 15:30:00,
2013-03-05 10:40:00,43.3,27.8,29.86,North,359,3.0,11.0,54,0.00,OVC,SCT,0.00,0.0,WeatherDisplay:10.37,2013-03-05 15:40:00,
2013-03-05 10:45:00,44.3,28.2,29.86,North,3,6.0,12.0,53,0.00,OVC,SCT,0.00,0.0,WeatherDisplay:10.37,2013-03-05 15:45:00,
2013-03-05 10:55:00,44.3,27.8,29.86,North,356,6.0,13.0,52,0.00,OVC,SCT,0.00,0.0,WeatherDisplay:10.37,2013-03-05 15:55:00,
2013-03-05 11:00:00,46.2,28.6,29.86,North,11,6.0,13.0,50,0.00,OVC,SCT,0.00,0.0,WeatherDisplay:10.37,2013-03-05 16:00:00,
2013-03-05 11:10:00,46.1,28.0,29.85,NE,44,5.0,9.0,49,0.00,SCT,SCT,0.00,0.0,WeatherDisplay:10.37,2013-03-05 16:10:00,
2013-03-05 11:15:00,44.8,27.3,29.86,NE,48,2.0,9.0,50,0.00,SCT,SCT,0.00,0.0,WeatherDisplay:10.37,2013-03-05 16:15:00,
2013-03-05 11:25:00,46.0,29.8,29.86,NNE,21,2.0,10.0,53,0.00,SCT,SCT,0.00,0.0,WeatherDisplay:10.37,2013-03-05 16:25:00,
2013-03-05 11:30:00,48.9,30.1,29.86,North,6,2.0,8.0,48,0.00,SCT,SCT,0.00,0.0,WeatherDisplay:10.37,2013-03-05 16:30:00,
2013-03-05 11:40:00,47.7,29.4,29.86,NNW,342,2.0,13.0,49,0.00,SCT,SCT,0.00,0.0,WeatherDisplay:10.37,2013-03-05 16:40:00,
2013-03-05 11:45:00,49.5,29.6,29.86,North,354,2.0,10.0,46,0.00,SCT,SCT,0.00,0.0,WeatherDisplay:10.37,2013-03-05 16:45:00,
2013-03-05 11:55:00,52.3,30.5,29.86,NW,325,5.0,12.0,43,0.00,SCT,SCT,0.00,0.0,WeatherDisplay:10.37,2013-03-05 16:55:00,
2013-03-05 12:00:00,52.7,30.8,29.86,NNW,338,3.0,12.0,43,0.00,SCT,SCT,0.00,0.0,WeatherDisplay:10.37,2013-03-05 17:00:00,
2013-03-05 12:10:00,51.5,29.7,29.86,NNE,21,1.0,9.0,43,0.00,SCT,SCT,0.00,0.0,WeatherDisplay:10.37,2013-03-05 17:10:00,
2013-03-05 12:15:00,52.6,31.3,29.86,NE,51,2.0,9.0,44,0.00,SCT,SCT,0.00,0.0,WeatherDisplay:10.37,2013-03-05 17:15:00,
2013-03-05 12:20:00,53.2,31.8,29.86,NE,45,2.0,6.0,44,0.00,SCT,SCT,0.00,0.0,WeatherDisplay:10.37,2013-03-05 17:20:00,
2013-03-05 12:30:00,53.9,30.7,29.86,North,351,2.0,6.0,41,0.00,SCT,SCT,0.00,0.0,WeatherDisplay:10.37,2013-03-05 17:30:00,
2013-03-05 12:40:00,51.0,29.8,29.86,NNE,30,2.0,7.0,44,0.00,SCT,SCT,0.00,0.0,WeatherDisplay:10.37,2013-03-05 17:40:00,
2013-03-05 12:45:00,50.4,29.3,29.86,North,358,2.0,10.0,44,0.00,SCT,SCT,0.00,0.0,WeatherDisplay:10.37,2013-03-05 17:45:00,
2013-03-05 12:55:00,50.8,30.8,29.86,NNW,347,1.0,6.0,46,0.00,SCT,SCT,0.00,0.0,WeatherDisplay:10.37,2013-03-05 17:55:00,
2013-03-05 13:00:00,52.1,30.3,29.86,NNE,31,2.0,5.0,43,0.00,SCT,SCT,0.00,0.0,WeatherDisplay:10.37,2013-03-05 18:00:00,
2013-03-05 13:10:00,49.5,29.1,29.87,NNW,348,1.0,6.0,45,0.00,FEW,SCT,0.00,0.0,WeatherDisplay:10.37,2013-03-05 18:10:00,
2013-03-05 13:15:00,48.4,28.5,29.86,North,6,1.0,6.0,46,0.00,FEW,SCT,0.00,0.0,WeatherDisplay:10.37,2013-03-05 18:15:00,
2013-03-05 13:25:00,46.8,28.6,29.87,NNW,344,1.0,4.0,49,0.00,FEW,SCT,0.00,0.0,WeatherDisplay:10.37,2013-03-05 18:25:00,
2013-03-05 13:30:00,46.8,28.6,29.87,North,353,2.0,9.0,49,0.00,FEW,SCT,0.00,0.0,WeatherDisplay:10.37,2013-03-05 18:30:00,
2013-03-05 13:40:00,46.6,28.4,29.87,NNW,330,2.0,9.0,49,0.00,FEW,SCT,0.00,0.0,WeatherDisplay:10.37,2013-03-05 18:40:00,
2013-03-05 13:45:00,46.6,28.9,29.87,NW,322,2.0,6.0,50,0.00,FEW,SCT,0.00,0.0,WeatherDisplay:10.37,2013-03-05 18:45:00,
2013-03-05 13:55:00,46.4,28.8,29.87,North,354,3.0,8.0,50,0.00,FEW,SCT,0.00,0.0,WeatherDisplay:10.37,2013-03-05 18:55:00,
2013-03-05 14:00:00,46.2,28.6,29.87,North,0,3.0,8.0,50,0.00,FEW,SCT,0.00,0.0,WeatherDisplay:10.37,2013-03-05 19:00:00,
2013-03-05 14:10:00,46.6,28.4,29.88,North,8,2.0,6.0,49,0.00,OVC,SCT,0.00,0.0,WeatherDisplay:10.37,2013-03-05 19:10:00,
2013-03-05 14:15:00,46.6,28.9,29.88,North,1,2.0,6.0,50,0.00,OVC,SCT,0.00,0.0,WeatherDisplay:10.37,2013-03-05 19:15:00,
2013-03-05 14:25:00,46.4,28.8,29.88,North,8,1.0,10.0,50,0.00,OVC,SCT,0.00,0.0,WeatherDisplay:10.37,2013-03-05 19:25:00,
2013-03-05 14:30:00,46.6,28.9,29.88,NNW,336,1.0,3.0,50,0.00,OVC,SCT,0.00,0.0,WeatherDisplay:10.37,2013-03-05 19:30:00,
2013-03-05 14:40:00,46.0,28.3,29.88,North,8,1.0,6.0,50,0.00,OVC,SCT,0.00,0.0,WeatherDisplay:10.37,2013-03-05 19:40:00,
2013-03-05 14:45:00,45.4,28.3,29.88,North,9,1.0,6.0,51,0.00,OVC,SCT,0.00,0.0,WeatherDisplay:10.37,2013-03-05 19:45:00,
2013-03-05 14:55:00,45.3,28.7,29.88,NNW,347,1.0,4.0,52,0.00,OVC,SCT,0.00,0.0,WeatherDisplay:10.37,2013-03-05 19:55:00,
2013-03-05 15:00:00,45.5,28.9,29.88,North,350,1.0,7.0,52,0.00,OVC,SCT,0.00,0.0,WeatherDisplay:10.37,2013-03-05 20:00:00,
2013-03-05 15:10:00,45.3,28.7,29.89,North,350,2.0,4.0,52,0.00,OVC,SCT,0.00,0.0,WeatherDisplay:10.37,2013-03-05 20:10:00,
2013-03-05 15:15:00,45.1,28.5,29.89,NE,48,1.0,3.0,52,0.00,OVC,SCT,0.00,0.0,WeatherDisplay:10.37,2013-03-05 20:15:00,
2013-03-05 15:25:00,44.9,28.4,29.89,ENE,58,1.0,4.0,52,0.00,OVC,SCT,0.00,0.0,WeatherDisplay:10.37,2013-03-05 20:25:00,
2013-03-05 15:30:00,45.0,28.8,29.89,North,4,1.0,5.0,53,0.00,OVC,SCT,0.00,0.0,WeatherDisplay:10.37,2013-03-05 20:30:00,
2013-03-05 15:40:00,45.0,28.8,29.90,North,1,1.0,2.0,53,0.00,OVC,SCT,0.00,0.0,WeatherDisplay:10.37,2013-03-05 20:40:00,
2013-03-05 15:45:00,45.0,28.8,29.90,NNE,13,0.0,3.0,53,0.00,OVC,SCT,0.00,0.0,WeatherDisplay:10.37,2013-03-05 20:45:00,
2013-03-05 15:55:00,45.0,28.9,29.91,ENE,60,0.0,3.0,53,0.00,OVC,SCT,0.00,0.0,WeatherDisplay:10.37,2013-03-05 20:55:00,
2013-03-05 16:00:00,44.8,30.0,29.91,East,97,3.0,6.0,56,0.00,OVC,SCT,0.00,0.0,WeatherDisplay:10.37,2013-03-05 21:00:00,
2013-03-05 16:10:00,44.6,30.8,29.91,SE,134,2.0,6.0,58,0.00,OVC,SCT,0.00,0.0,WeatherDisplay:10.37,2013-03-05 21:10:00,
2013-03-05 16:15:00,43.9,30.9,29.92,ESE,123,1.0,6.0,60,0.00,OVC,SCT,0.00,0.0,WeatherDisplay:10.37,2013-03-05 21:15:00,
2013-03-05 16:25:00,43.7,31.1,29.92,East,87,0.0,3.0,61,0.00,OVC,SCT,0.00,0.0,WeatherDisplay:10.37,2013-03-05 21:25:00,
2013-03-05 16:30:00,43.7,31.1,29.92,ENE,66,1.0,2.0,61,0.00,OVC,SCT,0.00,0.0,WeatherDisplay:10.37,2013-03-05 21:30:00,
2013-03-05 16:40:00,43.5,31.0,29.92,NE,47,0.0,1.0,61,0.00,OVC,SCT,0.00,0.0,WeatherDisplay:10.37,2013-03-05 21:40:00,
2013-03-05 16:45:00,43.3,31.2,29.92,NE,45,0.0,1.0,62,0.00,OVC,SCT,0.00,0.0,WeatherDisplay:10.37,2013-03-05 21:45:00,
2013-03-05 16:50:00,42.7,31.0,29.92,NE,45,0.0,1.0,63,0.00,OVC,SCT,0.00,0.0,WeatherDisplay:10.37,2013-03-05 21:50:00,
2013-03-05 16:55:00,42.0,30.7,29.92,NE,45,0.0,1.0,64,0.00,OVC,SCT,0.00,0.0,WeatherDisplay:10.37,2013-03-05 21:55:00,
2013-03-05 17:00:00,41.4,30.9,29.93,NE,45,0.0,2.0,66,0.00,OVC,SCT,0.00,0.0,WeatherDisplay:10.37,2013-03-05 22:00:00,
2013-03-05 17:10:00,40.8,30.3,29.93,West,270,0.0,2.0,66,0.00,BKN,SCT,0.00,0.0,WeatherDisplay:10.37,2013-03-05 22:10:00,
2013-03-05 17:15:00,40.5,30.4,29.92,West,270,0.0,1.0,67,0.00,BKN,SCT,0.00,0.0,WeatherDisplay:10.37,2013-03-05 22:15:00,
2013-03-05 17:25:00,39.9,29.8,29.93,West,270,0.0,2.0,67,0.00,BKN,SCT,0.00,0.0,WeatherDisplay:10.37,2013-03-05 22:25:00,
2013-03-05 17:30:00,39.7,30.0,29.93,West,270,0.0,2.0,68,0.00,BKN,SCT,0.00,0.0,WeatherDisplay:10.37,2013-03-05 22:30:00,
2013-03-05 17:40:00,39.2,29.9,29.93,West,270,0.0,1.0,69,0.00,BKN,SCT,0.00,0.0,WeatherDisplay:10.37,2013-03-05 22:40:00,
2013-03-05 17:45:00,38.8,30.2,29.93,West,270,0.0,2.0,71,0.00,BKN,SCT,0.00,0.0,WeatherDisplay:10.37,2013-03-05 22:45:00,
2013-03-05 17:55:00,38.7,30.1,29.93,West,270,0.0,1.0,71,0.00,BKN,SCT,0.00,0.0,WeatherDisplay:10.37,2013-03-05 22:55:00,
2013-03-05 18:00:00,38.8,30.6,29.93,West,270,0.0,1.0,72,0.00,BKN,SCT,0.00,0.0,WeatherDisplay:10.37,2013-03-05 23:00:00,
2013-03-05 18:10:00,38.3,30.1,29.93,West,270,0.0,2.0,72,0.00,BKN,SCT,0.00,0.0,WeatherDisplay:10.37,2013-03-05 23:10:00,
2013-03-05 18:15:00,37.8,30.3,29.93,West,270,0.0,2.0,74,0.00,BKN,SCT,0.00,0.0,WeatherDisplay:10.37,2013-03-05 23:15:00,
2013-03-05 18:25:00,37.4,30.5,29.93,West,270,1.0,2.0,76,0.00,BKN,SCT,0.00,0.0,WeatherDisplay:10.37,2013-03-05 23:25:00,
2013-03-05 18:30:00,37.0,29.8,29.94,West,270,0.0,2.0,75,0.00,BKN,SCT,0.00,0.0,WeatherDisplay:10.37,2013-03-05 23:30:00,
2013-03-05 18:40:00,36.3,29.8,29.94,West,270,0.0,2.0,77,0.00,BKN,SCT,0.00,0.0,WeatherDisplay:10.37,2013-03-05 23:40:00,
2013-03-05 18:45:00,36.1,29.6,29.94,SW,227,0.0,2.0,77,0.00,BKN,SCT,0.00,0.0,WeatherDisplay:10.37,2013-03-05 23:45:00,
2013-03-05 18:55:00,35.8,29.6,29.95,South,180,0.0,1.0,78,0.00,BKN,SCT,0.00,0.0,WeatherDisplay:10.37,2013-03-05 23:55:00,
2013-03-05 19:00:00,35.6,29.4,29.95,South,180,0.0,1.0,78,0.00,BKN,SCT,0.00,0.0,WeatherDisplay:10.37,2013-03-06 00:00:00,
2013-03-05 19:10:00,34.9,29.0,29.95,South,180,0.0,1.0,79,0.00,BKN,SCT,0.00,0.0,WeatherDisplay:10.37,2013-03-06 00:10:00,
2013-03-05 19:15:00,34.7,28.9,29.95,South,180,0.0,1.0,79,0.00,BKN,SCT,0.00,0.0,WeatherDisplay:10.37,2013-03-06 00:15:00,
2013-03-05 19:25:00,34.5,29.0,29.96,South,191,0.0,1.0,80,0.00,BKN,SCT,0.00,0.0,WeatherDisplay:10.37,2013-03-06 00:25:00,
2013-03-05 19:30:00,34.3,28.8,29.96,West,278,0.0,1.0,80,0.00,BKN,SCT,0.00,0.0,WeatherDisplay:10.37,2013-03-06 00:30:00,
2013-03-05 19:40:00,34.0,28.8,29.96,NW,323,0.0,2.0,81,0.00,BKN,SCT,0.00,0.0,WeatherDisplay:10.37,2013-03-06 00:40:00,
2013-03-05 19:45:00,33.8,29.2,29.96,NW,326,1.0,2.0,83,0.00,BKN,SCT,0.00,0.0,WeatherDisplay:10.37,2013-03-06 00:45:00,
2013-03-05 19:55:00,33.7,30.0,29.97,WNW,301,0.0,2.0,86,0.00,BKN,SCT,0.00,0.0,WeatherDisplay:10.37,2013-03-06 00:55:00,
2013-03-05 20:00:00,33.8,30.1,29.97,NW,308,0.0,2.0,86,0.00,BKN,SCT,0.00,0.0,WeatherDisplay:10.37,2013-03-06 01:00:00,
2013-03-05 20:10:00,33.4,29.4,29.97,North,0,0.0,0.0,85,0.00,OVC,SCT,0.00,0.0,WeatherDisplay:10.37,2013-03-06 01:10:00,
2013-03-05 20:15:00,33.3,29.2,29.97,North,0,0.0,1.0,85,0.00,OVC,SCT,0.00,0.0,WeatherDisplay:10.37,2013-03-06 01:15:00,
2013-03-05 20:25:00,32.9,28.8,29.96,North,0,0.0,0.0,85,0.00,OVC,SCT,0.00,0.0,WeatherDisplay:10.37,2013-03-06 01:25:00,
2013-03-05 20:30:00,32.8,29.1,29.96,North,0,0.0,0.0,86,0.00,OVC,SCT,0.00,0.0,WeatherDisplay:10.37,2013-03-06 01:30:00,
2013-03-05 20:40:00,32.7,29.0,29.96,North,0,0.0,1.0,86,0.00,OVC,SCT,0.00,0.0,WeatherDisplay:10.37,2013-03-06 01:40:00,
2013-03-05 20:45:00,32.9,29.2,29.96,North,0,0.0,1.0,86,0.00,OVC,SCT,0.00,0.0,WeatherDisplay:10.37,2013-03-06 01:45:00,
2013-03-05 20:55:00,33.1,29.6,29.96,North,0,0.0,2.0,87,0.00,OVC,SCT,0.00,0.0,WeatherDisplay:10.37,2013-03-06 01:55:00,
2013-03-05 21:00:00,33.1,29.6,29.96,North,0,0.0,1.0,87,0.00,OVC,SCT,0.00,0.0,WeatherDisplay:10.37,2013-03-06 02:00:00,
2013-03-05 21:10:00,33.3,29.8,29.96,North,0,0.0,1.0,87,0.00,OVC,SCT,0.00,0.0,WeatherDisplay:10.37,2013-03-06 02:10:00,
2013-03-05 21:15:00,33.4,30.0,29.96,North,0,0.0,1.0,87,0.00,OVC,SCT,0.00,0.0,WeatherDisplay:10.37,2013-03-06 02:15:00,
2013-03-05 21:25:00,33.6,30.4,29.95,NW,324,1.0,2.0,88,0.00,OVC,SCT,0.00,0.0,WeatherDisplay:10.37,2013-03-06 02:25:00,
2013-03-05 21:30:00,33.3,29.8,29.95,North,352,0.0,1.0,87,0.00,OVC,SCT,0.00,0.0,WeatherDisplay:10.37,2013-03-06 02:30:00,
2013-03-05 21:40:00,33.1,29.9,29.96,NNW,339,0.0,2.0,88,0.00,OVC,SCT,0.00,0.0,WeatherDisplay:10.37,2013-03-06 02:40:00,
2013-03-05 21:45:00,32.9,29.7,29.96,NW,315,0.0,1.0,88,0.00,OVC,SCT,0.00,0.0,WeatherDisplay:10.37,2013-03-06 02:45:00,
2013-03-05 21:55:00,32.5,29.4,29.96,NW,319,0.0,2.0,88,0.00,OVC,SCT,0.00,0.0,WeatherDisplay:10.37,2013-03-06 02:55:00,
2013-03-05 22:00:00,32.5,29.4,29.96,NNW,344,0.0,2.0,88,0.00,OVC,SCT,0.00,0.0,WeatherDisplay:10.37,2013-03-06 03:00:00,
2013-03-05 22:10:00,32.8,30.0,29.96,North,0,0.0,1.0,89,0.00,OVC,SCT,0.00,0.0,WeatherDisplay:10.37,2013-03-06 03:10:00,
2013-03-05 22:15:00,32.9,30.0,29.97,North,0,0.0,2.0,89,0.00,OVC,SCT,0.00,0.0,WeatherDisplay:10.37,2013-03-06 03:15:00,
2013-03-05 22:25:00,32.9,30.0,29.97,NNW,345,1.0,2.0,89,0.00,BKN,SCT,0.00,0.0,WeatherDisplay:10.37,2013-03-06 03:25:00,
2013-03-05 22:30:00,32.9,30.0,29.97,NW,316,1.0,2.0,89,0.00,BKN,SCT,0.00,0.0,WeatherDisplay:10.37,2013-03-06 03:30:00,
2013-03-05 22:40:00,33.9,31.6,29.97,NNW,331,1.0,4.0,91,0.00,BKN,SCT,0.00,0.0,WeatherDisplay:10.37,2013-03-06 03:40:00,
2013-03-05 22:45:00,34.6,32.0,29.98,NNW,334,1.0,4.0,90,0.00,BKN,SCT,0.00,0.0,WeatherDisplay:10.37,2013-03-06 03:45:00,
2013-03-05 22:55:00,35.1,32.4,29.98,NW,321,1.0,2.0,90,0.00,BKN,SCT,0.00,0.0,WeatherDisplay:10.37,2013-03-06 03:55:00,
2013-03-05 23:00:00,35.2,32.6,29.99,NW,315,1.0,2.0,90,0.00,BKN,SCT,0.00,0.0,WeatherDisplay:10.37,2013-03-06 04:00:00,
2013-03-05 23:10:00,35.4,32.8,29.99,NW,315,0.0,2.0,90,0.00,SCT,SCT,0.00,0.0,WeatherDisplay:10.37,2013-03-06 04:10:00,
2013-03-05 23:15:00,35.4,33.1,29.99,NW,315,0.0,2.0,91,0.00,SCT,SCT,0.00,0.0,WeatherDisplay:10.37,2013-03-06 04:15:00,
2013-03-05 23:25:00,35.4,33.3,29.99,WNW,285,1.0,2.0,92,0.00,BKN,SCT,0.00,0.0,WeatherDisplay:10.37,2013-03-06 04:25:00,
2013-03-05 23:30:00,35.4,33.3,29.99,SW,233,1.0,2.0,92,0.00,BKN,SCT,0.00,0.0,WeatherDisplay:10.37,2013-03-06 04:30:00,
2013-03-05 23:40:00,35.1,33.2,29.98,West,262,0.0,2.0,93,0.00,BKN,SCT,0.00,0.0,WeatherDisplay:10.37,2013-03-06 04:40:00,
2013-03-05 23:45:00,35.1,33.2,29.98,West,270,0.0,1.0,93,0.00,BKN,SCT,0.00,0.0,WeatherDisplay:10.37,2013-03-06 04:45:00,
2013-03-05 23:55:00,35.0,33.1,29.98,West,280,0.0,2.0,93,0.00,BKN,SCT,0.00,0.0,WeatherDisplay:10.37,2013-03-06 04:55:00,